www.pogodaiklimat.ru

Погода и климат >> Архив погоды >> Россия >> Башкирия >> Акъяр


ПОГОДА в Акъяре

  • Прогноз погоды в Акъяре
  • Монитор погоды в Акъяре

АРХИВ ПОГОДЫ в Акъяре

Время (UTC), дата Ветер
(напр.,м/с)
 
Видим.   Явления Облачность Т
(С)
Тd
(С)
f
(%)
Тe
(С)
Тes
(С)
Комфортность P
(гПа)
Po
(гПа)
Тmin
(С)
Tmax
(С)
R
(мм)
R24
(мм)
S
(см)
09 9.07 З 4 50 км 6/4 600 м
[Cu med, cong Ci fib]
+29.9 +7.1 24 +29 +35 жарко 1007.0 969.3
12 9.07 З 3 50 км 9/9 600 м
[Cu med, cong]
+31.2 +5.6 20 +29 +30 жарко 1006.1 968.6
15 9.07 В 1 50 км 3/3 600 м
[Sc diur, vesp Ci fib]
+30.1 +4.0 19 +28 +29 жарко 1006.1 968.4 +31.3
18 9.07 ЮВ 3 20 км 9/4 600 м
[Cb cap Ac trans Cs]
+23.8 +9.7 41 +25 +25 комфорт 1007.5 969.0
21 9.07 В 2 20 км 4/0
[Ci fib]
+19.5 +9.3 52 +21 +21 комфорт 1008.0 969.0
00 10.07 Ю 3 50 км 9/3 600 м
[Sc Ac trans Cs]
+20.4 +7.4 43 +22 +22 комфорт 1007.6 968.7
03 10.07 Ю 4 50 км 9/1 600 м
[Sc Ac trans Cc]
+23.7 +7.3 35 +24 +25 комфорт 1006.3 967.8 +18.2
06 10.07 ЮЗ 6-10
{11}
50 км 10/8 600 м
[Sc Ac As]
+27.3 +3.1 21 +26 +26 жарко 1005.8 967.8
09 10.07 С 1
{10}
50 км в посл. час ливневой дождь 9/9 600 м
[Cb cap]
+22.1 +12.6 55 +25 +27 комфорт 1005.9 967.3
12 10.07 ЮЗ 4
{10}
50 км {ливн. осадки} 9/3 600 м
[Cb cap Ac trans Cc]
+29.0 +7.6 26 +28 +30 жарко 1003.8 966.1
15 10.07 штиль 0 50 км 9/6 600 м
[Cb cap Cc]
+28.2 +9.5 31 +28 +29 жарко 1002.6 964.9 +3.0 0.4
18 10.07 ЮЗ 6 20 км в посл. час гроза 10/10 600 м
[Cb cap]
+27.1 +6.5 27 +26 +26 жарко 1004.1 966.1
21 10.07 С 1
{14}
20 км гроза без осадков {ливн. осадки} 9/8 600 м
[Cb cap Ac As]
+20.9 +13.1 61 +25 +25 комфорт 1004.8 966.1
00 11.07 штиль 0 20 км {гроза, ливн. осадки} 6/6 600 м
[Sc]
+18.6 +14.1 75 +19 +19 1005.6 966.6
03 11.07 З 1 50 км 3/3 600 м
[Sc Ac trans]
+21.7 +14.6 64 +25 +28 комфорт 1006.2 967.6 +17.9 0.0
06 11.07 З 3 50 км 4/3 600 м
[Cu med, cong Ac trans Cc]
+28.1 +8.4 29 +28 +35 жарко 1005.8 967.9
09 11.07 З 4 50 км 9/4 600 м
[Cu med, cong Ci fib]
+30.0 +4.6 20 +28 +34 жарко 1005.6 967.6
12 11.07 З 4
{11}
50 км 8/3 600 м
[Cb calv Ci fib]
+29.6 +4.9 21 +28 +31 жарко 1006.1 968.4
15 11.07 СЗ 5 50 км 4/3 600 м
[Sc diur, vesp Cc]
+27.0 +4.7 24 +26 +26 жарко 1008.0 969.9 +30.9
18 11.07 СВ 3 20 км 4/1 600 м
[Sc diur, vesp Ci fib]
+20.4 +6.0 39 +22 +22 комфорт 1010.4 971.3
21 11.07 СЗ 2 20 км 1/0
[Ci fib]
+16.0 +6.2 52 +16 +16 1011.2 971.5
00 12.07 СЗ 1 50 км 4/1 600 м
[Sc Ci fib]
+14.1 +6.6 61 +15 +15 1011.4 971.5
03 12.07 СВ 2 50 км 8/0
[Cc]
+21.6 +7.1 39 +22 +26 комфорт 1010.4 971.5 +13.8
06 12.07 В 5 50 км 9/0
[Cs]
+29.8 +8.2 26 +29 +35 жарко 1007.8 970.0
09 12.07 В 4 50 км 8/1 600 м
[Cu hum Cc]
+34.0 +7.1 19 +32 +40 жарко 1005.8 968.6
12 12.07 ЮВ 4-10
{10}
50 км 8/4 600 м
[Cu med, cong Cc]
+36.3 +3.5 13 +33 +36 жарко 1004.1 967.2
15 12.07 ЮВ 4
{10}
50 км 8/4 600 м
[Sc diur, vesp Cc]
+35.4 +1.7 12 +32 +32 жарко 1002.8 965.8 +36.7
18 12.07 В 5 20 км 6/3 600 м
[Sc diur, vesp Ci fib]
+27.5 +5.2 24 +26 +26 жарко 1003.4 965.5
21 12.07 В 5 20 км 8/3 600 м
[Sc Ac trans Ci fib]
+26.6 +5.5 26 +26 +26 жарко 1003.1 965.1
00 13.07 ЮВ 4 50 км 9/3 600 м
[Sc Ac trans Ci fib]
+24.0 +3.3 26 +23 +23 комфорт 1003.1 964.8
03 13.07 Ю 4 50 км 9/0
[Ac trans Ci fib]
+26.6 +4.3 24 +26 +27 жарко 1003.2 965.2 +23.7
06 13.07 Ю 4
{13}
50 км {метель} 9/3 600 м
[Cu Sc Ac trans Cc]
+36.5 +1.3 11 +33 +37 жарко 1002.9 966.1
09 13.07 Ю 5-10
{13}
50 км {метель} 9/5 600 м
[Cu med, cong Ac trans Cs]
+38.6 +0.1 9 +35 +37 очень
жарко
1002.1 965.5
12 13.07 ЮЗ 6-10
{14}
50 км {метель} 9/8 600 м
[Cb cap Ac trans Cs]
+37.0 +0.4 10 +33 +34 жарко 1002.3 965.5
15 13.07 В 3
{10}
50 км 9/4 600 м
[Cb cap Cs]
+34.2 +2.9 14 +31 +31 жарко 1001.4 964.4 +39.2
18 13.07 штиль 0 20 км 9/8 600 м
[Cb cap Ci fib]
+29.7 +7.0 24 +29 +29 жарко 1003.0 965.4
21 13.07 СВ 2 20 км 9/4 600 м
[Cb cap Cs]
+24.4 +9.6 39 +25 +25 комфорт 1005.0 966.7
00 14.07 штиль 0 50 км 9/8 600 м
[Cb cap Cs]
+22.6 +8.3 40 +24 +24 комфорт 1005.0 966.5
03 14.07 ЮВ 3 50 км 9/3 600 м
[Sc Ac trans Cs]
+27.6 +3.3 21 +26 +27 жарко 1004.4 966.5 +22.4
06 14.07 Ю 2 50 км 9/1 600 м
[Sc Ac trans Cc]
+32.5 +5.1 18 +30 +37 жарко 1004.0 966.7
09 14.07 ЮВ 2 50 км 9/3 600 м
[Sc Cc]
+33.0 +7.8 21 +31 +41 жарко 1002.9 965.7
12 14.07 ЮВ 3
{10}
50 км 9/8 600 м
[Cb cap Ac trans Cs]
+31.0 +9.8 27 +31 +32 жарко 1002.7 965.3
15 14.07 ЮЗ 2
{13}
50 км {метель} 9/9 600 м
[Cb cap]
+29.5 +12.4 35 +31 +31 жарко 1002.9 965.3 +34.1
18 14.07 С 2 20 км {метель} 8/5 600 м
[Cb cap Ac trans]
+25.0 +15.1 54 +28 +28 жарко 1001.7 963.7
21 14.07 В 4 20 км 9/9 600 м
[Cb cap]
+22.5 +10.3 46 +24 +24 комфорт 999.6 961.3
00 15.07 В 9-15
{15}
50 км слаб. ливневой дождь 10/10 600 м
[Cb cap]
+26.5 +3.0 22 +25 +25 комфорт 996.0 958.2
03 15.07 Ю 7-12
{15}
50 км {ливн. осадки} 9/3 600 м
[Sc Cc]
+27.4 +2.4 20 +26 +26 жарко 994.3 956.7 +22.0 0.0
06 15.07 З 6-11
{16}
20 км {ливн. осадки, метель} 9/8 600 м
[Cb cap Cs]
+23.0 +14.0 57 +26 +27 жарко 998.9 960.7
09 15.07 ЮЗ 9-15
{15}
50 км пыльный позёмок 9/8 600 м
[Cb cap Cs]
+23.2 +11.5 48 +26 +26 жарко 1000.5 962.2
12 15.07 З 8-13
{15}
50 км пыльный позёмок 8/6 600 м
[Cb cap Cs]
+20.9 +10.0 50 +22 +23 комфорт 1003.7 965.0
15 15.07 З 8-13
{15}
50 км пыльный позёмок 3/3 600 м
[Sc diur, vesp]
+19.8 +8.1 47 +20 +20 1005.6 966.7 +27.4
18 15.07 З 6-11
{13}
20 км {метель} 3/3 600 м
[Sc diur, vesp Ci fib]
+16.5 +8.7 60 +15 +15 1007.7 968.3
21 15.07 СЗ 2
{11}
20 км ясно +13.5 +8.6 72 +13 +13 1009.2 969.3
00 16.07 З 2 50 км 3/0
[Ci fib]
+12.6 +8.1 74 +12 +12 1010.7 970.6
03 16.07 З 5 50 км ясно +17.6 +9.7 60 +17 +19 1011.5 972.1 +12.3

 

Местоположение метеостанции Акъяр (Башкирия, Россия): широта 51.87 долгота 58.18 высота над уровнем моря 341 м.

В архиве по умолчанию представлена погода в Акъяре за последнюю неделю. Архивные данные за месяц целиком и за предыдущие месяцы, начиная с января 2011 года, Вы можете получить, выбрав интересующий диапазон дат из раскрывающегося списка и нажав кнопку "Ввод!".


*Определитесь, кто Вы:
робот инопланетянин человек

Внимание! Время в таблицах - всемирное. Для получения местного времени необходимо прибавить поправку, которая равна 5 ч.

Смотрите также архив погоды в соседних городах и на ближайших метеорологических станциях:

Погода в Энергетике (Оренбургская область, Россия) (46 км)
Погода в Зилаире (Башкирия, Россия) (66 км)
Погода в Кувандыке (Оренбургская область, Россия) (71 км)
Погода в Орске (Оренбургская область, Россия) (94 км)
Погода в Кизильском (Челябинская область, Россия) (106 км)
Погода в Айдырля (Оренбургская область, Россия) (117 км)
Погода в Кос-Истеке (Актюбинская область, Казахстан) (128 км)
Погода в Беляевке (Оренбургская область, Россия) (131 км)
Погода в Степном (Актюбинская область, Казахстан) (133 км)
Погода в Троицком Т (Оренбургская область, Россия) (134 км)

Пояснения к столбцам:

Ветер - указаны скорость ветра в м/с - средняя за 10 мин, порывы в срок и между сроками (в фигурных скобках) и направление, откуда дует ветер: С - северный, СВ - северо-восточный, В - восточный, ЮВ - юго-восточный, Ю - южный, ЮЗ - юго-западный, З - западный, СЗ - северо-западный.
Видимость - горизонтальная дальность видимости в метрах или километрах. При видимости от 1 до 10 км при отсутствии осадков обычно наблюдается дымка, при ухудшении видимости до 1 км и менее - туман. В сухую погоду видимость может ухудшаться дымом, пылью или мглою.
Явления - указаны атмосферные явления, наблюдавшиеся в срок или в последний час перед сроком; фигурными скобками обозначены явления, наблюдавшиеся между сроками (за 1-3 часа до срока); квадратными скобками обозначены град или гололедные отложения с указанием их диаметра в мм.
Облачность - указаны через наклонную черту общая и нижняя облачность в баллах и высота нижней границы облаков в метрах; квадратными скобками обозначены формы облаков: Ci - перистые, Cs - перисто-слоистые, Cc - перисто-кучевые, Ac - высококучевые, As - высокослоистые, Sc - слоисто-кучевые, Ns - слоисто-дождевые, Cu - кучевые, Cb - кучево-дождевые. Подробнее классификацию облаков см. в Атласе облаков (PDF).
T - Температура воздуха - температура, измеренная на высоте 2 м над землей.
Td - Температура точки росы - температура, при понижении до которой содержащийся в воздухе водяной пар достигнет насыщения.
f - Относительная влажность воздуха - влажноcть воздуха, измеренная на высоте 2 м над землей.
Te - Эффективная температура - температура, которую ощущает одетый по сезону человек в тени. Характеристика душности погоды. При расчете учитывается влияние влажности воздуха и скорости ветра на теплоощущения человека.
Tes - Эффективная температура на солнце - температура, которую ощущает человек, с поправкой на солнечный нагрев. Характеристика знойности погоды. Зависит от высоты солнца над горизонтом, облачности и скорости ветра. Ночью, в пасмурную погоду, а также при ветре 12 м/с и более поправка равна нулю.
P - Атмосферное давление - приведенное к уровню моря атмосферное давление.
Po - Атмосферное давление - измеренное на уровне метеостанции атмосферное давление.
Tmin - Минимальная температура - минимум температуры воздуха на высоте 2 м над землей.
Tmax - Максимальная температура - максимум температуры воздуха на высоте 2 м над землей.
R - Количество осадков - Количество выпавших осадков за период времени, мм. При наведении курсора мыши на число - период времени, за который выпало указанное количество осадков.
R24 - Количество осадков - Количество выпавших осадков за 24 часа, мм.
S - Снежный покров - Высота снежного покрова, см. При наведении курсора мыши на число - состояние снежного покрова и степень покрытия местности в баллах.